Overview Statistics Trail Chart Weather Telemetry Raw packets
 

This is the latest recevied weather packets stored in our database for station/object WW6Q. If no packets are shown the sender has not sent any weather packets the latest 10 day(s).

<< 26 27 28 29 30 31 32 >>
Time Temp. Humidity Pressure Rain* Wind** Luminosity Snow
1788447827 31.67° C 62% 1014.9 hPa 0 mm - 496 W/m² -
1788447521 31.67° C 63% 1014.8 hPa 0 mm - 485 W/m² -
1788447217 31.67° C 62% 1014.7 hPa 0 mm - 470 W/m² -
1788446916 31.67° C 65% 1014.9 hPa 0 mm - 455 W/m² -
1788446611 31.11° C 63% 1014.7 hPa 0 mm - 441 W/m² -
1788446307 30.56° C 64% 1014.7 hPa 0 mm - 428 W/m² -
1788446004 30° C 69% 1014.7 hPa 0 mm - 412 W/m² -
1788445699 30° C 69% 1014.7 hPa 0 mm - 401 W/m² -
1788445395 30° C 67% 1014.5 hPa 0 mm - 261 W/m² -
1788445090 31.11° C 65% 1014.8 hPa 0 mm - 205 W/m² -
1788444786 31.11° C 64% 1014.8 hPa 0 mm - 306 W/m² -
1788444486 30.56° C 65% 1014.8 hPa 0 mm - 397 W/m² -
1788444181 30° C 67% 1014.6 hPa 0 mm - 353 W/m² -
1788443877 30° C 69% 1014.8 hPa 0 mm - 117 W/m² -
1788443572 29.44° C 68% 1014.7 hPa 0 mm - 303 W/m² -
1788443271 28.89° C 70% 1014.7 hPa 0 mm - 299 W/m² -
1788442967 28.33° C 73% 1014.7 hPa 0 mm - 172 W/m² -
1788442664 28.33° C 72% 1014.8 hPa 0 mm - 94 W/m² -
1788442361 28.33° C 73% 1014.7 hPa 0 mm - 97 W/m² -
1788442060 28.33° C 73% 1014.7 hPa 0 mm - 107 W/m² -
1788441755 28.33° C 74% 1014.7 hPa 0 mm - 131 W/m² -
1788441451 27.78° C 76% 1014.6 hPa 0 mm - 136 W/m² -
1788441150 26.67° C 81% 1014.7 hPa 0 mm - 141 W/m² -
1788440845 26.67° C 83% 1014.7 hPa 0 mm - 126 W/m² -
1788440540 26.11° C 82% 1014.7 hPa 0 mm - 117 W/m² -

* Rain latest hour (hover to see other rain measurements)
** Current wind speed in m/s (hover to see current wind gust speed)